Hourly Data Report for October 25, 2013

All times are specified in Local Standard Time (LST). Add 1 hour to adjust for Daylight Saving Time where and when it is observed.

ST LEONARD CS
NEW BRUNSWICK

47°09'28.050" N
67°49'55.014" W
245.00 m
810I001
71019
WIY

Download Data

Hourly Data (October 2013)
Hourly Data Report for October 25, 2013
Temp Definition
°C
Dew Point Temp Definition
°C
Rel Hum Definition
%
Wind Dir Definition
10's deg

Wind Spd Definition
km/h
Visibility Definition
km
Stn Press Definition
kPa
Hmdx Definition


Wind Chill Definition


Weather Definition


TIME
00:00 2.7 -0.3 81 24 13   97.21     LegendNANA
01:00 3.0 -0.2 79 25 13   97.29     LegendNANA
02:00 3.1 0.2 81 25 13   97.37     LegendNANA
03:00 3.1 0.0 80 25 15   97.42     LegendNANA
04:00 2.8 0.0 82 26 15   97.46     LegendNANA
05:00 2.1 -0.3 84 24 11   97.55     LegendNANA
06:00 1.7 -0.3 87 21 7   97.65     LegendNANA
07:00 1.6 -0.5 86 26 9   97.71     LegendNANA
08:00 2.1 -0.4 83 27 7   97.81     LegendNANA
09:00 3.6 0.0 77 28 17   97.86     LegendNANA
10:00 4.4 -0.1 73 29 20   97.90     LegendNANA
11:00 5.5 -0.4 66 27 20   97.94     LegendNANA
12:00 5.8 -1.0 62 28 20   97.97     LegendNANA
13:00 6.6 -1.8 55 28 22   97.93     LegendNANA
14:00 7.2 -0.6 58 27 26   97.96     LegendNANA
15:00 6.0 -0.3 64 27 20   98.00     LegendNANA
16:00 5.7 -1.3 61 28 19   98.03     LegendNANA
17:00 5.0 -1.2 64 28 15   98.09     LegendNANA
18:00 3.1 0.7 84 27 9   98.17     LegendNANA
19:00 3.1 1.0 86 28 19   98.23     LegendNANA
20:00 1.9 0.5 90 28 13   98.23     LegendNANA
21:00 1.4 -0.1 90 30 6   98.29     LegendNANA
22:00 2.1 0.4 88 26 7   98.33     LegendNANA
23:00 -0.1 -1.1 93   0   98.34     LegendNANA

Notes on Data Quality.

Legend

  • E = Estimated
  • M = Missing
  • NA = Not Available
  • ‡ = Partner data that is not subject to review by the National Climate Archives
Date modified: